Flight Track Log - Related Links

Times and Time Zones

All times are in EDT time to prevent confusion due to time zone crossing. See the GLA155 flight status page for this flight to view local times or setup timezone preferences in your user account.


Time Position Orientation Groundspeed Altitude Reporting Facility
EDT Latitude Longitude Course Direction KTS MPH feet Rate Location/Type
Thu 01:50:33 PM 35.2075 -114.0358 217° Southwest 205 236 10,000  Level Los Angeles Center
Thu 01:51:35 PM 35.1581 -114.0700 209° Southwest 204 235 12,100 1,984 Climbing Los Angeles Center
Thu 01:52:37 PM 35.1092 -114.1039 210° Southwest 201 231 14,100 1,742 Climbing Los Angeles Center
Thu 01:53:39 PM 35.0594 -114.1414 212° Southwest 207 238 15,700 1,500 Climbing Los Angeles Center
Thu 01:54:41 PM 35.0128 -114.1864 218° Southwest 214 246 17,200 1,113 Climbing Los Angeles Center
Thu 01:55:43 PM 34.9811 -114.2464 237° Southwest 218 251 18,000 1,210 Climbing Los Angeles Center
Thu 01:56:45 PM 34.9669 -114.3286 258° West 206 237 19,700 1,016 Climbing Los Angeles Center
Thu 01:57:47 PM 34.9553 -114.4028 259° West 221 254 20,100 242 Climbing Los Angeles Center
Thu 01:58:49 PM 34.9417 -114.4869 259° West 251 289 20,200 -48 Climbing Los Angeles Center
Thu 01:59:51 PM 34.9281 -114.5733 259° West 259 298 20,000 -97 Descending Los Angeles Center
Thu 02:00:53 PM 34.9144 -114.6631 260° West 266 306 20,000  Level Los Angeles Center
Thu 02:01:55 PM 34.9044 -114.7536 262° West 267 307 20,000 48 Level Los Angeles Center
Thu 02:02:58 PM 34.8881 -114.8600 259° West 266 306 20,100  Climbing Los Angeles Center
Thu 02:03:59 PM 34.8836 -114.9322 266° West 267 307 20,000  Descending Los Angeles Center
Thu 02:05:02 PM 34.8722 -115.0408 263° West 269 310 20,100 96 Climbing Los Angeles Center
Thu 02:06:04 PM 34.8631 -115.1311 263° West 269 310 20,200 -48 Climbing Los Angeles Center
Thu 02:07:06 PM 34.8564 -115.2228 265° West 270 311 20,000 -97 Descending Los Angeles Center
Thu 02:08:08 PM 34.8517 -115.3131 266° West 268 308 20,000  Level Los Angeles Center
Thu 02:09:10 PM 34.8486 -115.4239 268° West 270 311 20,000 48 Level Los Angeles Center
Thu 02:10:12 PM 34.8453 -115.5114 267° West 261 300 20,100 48 Climbing Los Angeles Center
Thu 02:11:14 PM 34.8411 -115.6056 267° West 267 307 20,100  Level Los Angeles Center
Thu 02:12:16 PM 34.8342 -115.6944 265° West 265 305 20,100 -48 Level Los Angeles Center
Thu 02:13:19 PM 34.8206 -115.7842 260° West 268 308 20,000  Descending Los Angeles Center
Thu 02:14:21 PM 34.8147 -115.8761 266° West 272 313 20,100  Climbing Los Angeles Center
Thu 02:15:23 PM 34.8136 -115.9667 269° West 271 312 20,000  Descending Los Angeles Center
Thu 02:16:25 PM 34.8131 -116.0575 270° West 269 310 20,100  Climbing Los Angeles Center
Thu 02:17:27 PM 34.8089 -116.1678 267° West 271 312 20,000  Descending Los Angeles Center
Thu 02:18:29 PM 34.8058 -116.2575 268° West 267 307 20,100  Climbing Los Angeles Center
Thu 02:19:31 PM 34.8081 -116.3483 272° West 269 310 20,000 -48 Descending Los Angeles Center
Thu 02:20:33 PM 34.8028 -116.4378 266° West 267 307 20,000  Level Los Angeles Center
Thu 02:21:35 PM 34.7936 -116.5264 263° West 266 306 20,000  Level Los Angeles Center
Thu 02:22:38 PM 34.7822 -116.6161 261° West 267 307 20,000 -192 Level Los Angeles Center
Thu 02:23:40 PM 34.7667 -116.7219 260° West 266 306 19,600 -774 Descending Los Angeles Center
Thu 02:24:42 PM 34.7561 -116.8103 262° West 264 304 18,400 -976 Descending Los Angeles Center
Thu 02:25:43 PM 34.7478 -116.8828 262° West 270 311 17,600 -823 Descending Los Angeles Center
Thu 02:26:46 PM 34.7336 -116.9931 261° West 272 313 16,700 -768 Descending Los Angeles Center
Thu 02:27:48 PM 34.7228 -117.0839 262° West 273 314 16,000 -677 Descending Los Angeles Center
Thu 02:28:50 PM 34.7153 -117.1775 264° West 275 316 15,300 -726 Descending Los Angeles Center
Thu 02:29:52 PM 34.7081 -117.2911 266° West 280 322 14,500 -581 Descending Los Angeles Center
Thu 02:30:54 PM 34.6994 -117.3864 264° West 282 325 14,100 -435 Descending Los Angeles Center
Thu 02:31:56 PM 34.6878 -117.4619 259° West 282 325 13,600 -576 Descending Los Angeles Center
Thu 02:32:59 PM 34.6781 -117.5736 264° West 278 320 12,900 -576 Descending Los Angeles Center
Thu 02:34:01 PM 34.6644 -117.6694 260° West 284 327 12,400 -871 Descending Los Angeles Center
Thu 02:35:03 PM 34.6561 -117.7625 264° West 279 321 11,100 -1,161 Descending Los Angeles Center
Thu 02:36:05 PM 34.6489 -117.8536 265° West 272 313 10,000 -823 Descending Los Angeles Center
Thu 02:37:07 PM 34.6414 -117.9636 265° West 272 313 9,400 -435 Descending Los Angeles Center
Thu 02:38:09 PM 34.6325 -118.0547 263° West 272 313 9,100 -290 Descending Los Angeles Center
Thu 02:39:11 PM 34.5997 -118.1294 242° Southwest 254 292 8,800 -532 Descending Los Angeles Center
Thu 02:40:13 PM 34.5564 -118.2028 234° Southwest 242 278 8,000 -288 Descending Los Angeles Center
Thu 02:41:16 PM 34.5164 -118.2558 228° Southwest 216 249 8,200 96 Climbing Los Angeles Center
Thu 02:42:18 PM 34.4683 -118.3178 227° Southwest 251 289 8,200 -48 Level Los Angeles Center
Thu 02:43:20 PM 34.4156 -118.3464 204° Southwest 212 244 8,100 -339 Descending Los Angeles Center
Thu 02:44:22 PM 34.3617 -118.3539 187° South 194 223 7,500 -484 Descending Los Angeles Center
Thu 02:45:24 PM 34.3086 -118.3594 185° South 191 220 7,100 -242 Descending Los Angeles Center
Thu 02:46:26 PM 34.2481 -118.3275 156° South 197 227 7,000 -532 Descending Los Angeles Center
Thu 02:47:28 PM 34.1958 -118.2981 155° Southeast 203 234 6,000 -435 Descending Los Angeles Center
Thu 02:48:30 PM 34.1483 -118.2736 157° South 194 223 6,100  Climbing Los Angeles Center
Thu 02:49:32 PM 34.0928 -118.2464 158° South 208 239 6,000 -532 Descending Los Angeles Center
Thu 02:50:34 PM 34.0378 -118.2242 161° South 213 245 5,000 -1,248 Descending Los Angeles Center
Thu 02:51:37 PM 33.9783 -118.2472 198° South 200 230 3,400 -1,344 Descending Los Angeles Center
Thu 02:52:39 PM 33.9631 -118.3033 252° West 185 213 2,200 -1,065 Descending Los Angeles Center
Thu 02:53:41 PM 33.9581 -118.3494 263° West 159 183 1,200 -774 Descending Los Angeles Center
Thu 02:54:43 PM 33.9556 -118.3817 265° West 136 157 600 -480 Descending Los Angeles Center
Thu 02:55:46 PM 33.9517 -118.4183 263° West 105 121 200 -381 Descending Los Angeles Center
Thu 02:57:00 PM 33.9425 -118.4081 228° Southwest  Level Estimated

Login

Don't have an account? Register now (free) for customized features, flight alerts, and more!